Location: LDNL
(36.4545°S, 141.6685°E)
Time: 08:57:35
(UTC+11:00)

Courier 1B - Pass Details

Date: 11 February 2023
Orbit: 962 x 1209 km, 28.3° (Epoch: 21 March)

Event Time Altitude Azimuth Distance (km) Brightness Sun altitude
Rises 21:49:30 0° 315° (NW) 3,680 10.7 -14.6°
Reaches altitude 10° 21:52:34 10° 328° (NNW) 2,763 9.9 -15.1°
Maximum altitude 21:57:56 26° 21° (NNE) 1,919 8.6 -16.0°
Enters shadow 21:59:46 23° 45° (NE) 2,060 8.6 -16.4°
